Location: Unspecified
(0.0000°N, 0.0000°E)
Time: 02:02:37
(UTC+02:00)

ATLAS V CENTAUR R/B - Visible Passes

Search period start: 01 July 2015 00:00
Search period end: 11 July 2015 00:00
Orbit: 234 x 29401 km, 18.1° (Epoch: 30 June)

Date Brightness Start Highest point End Pass type
(mag) Time Alt. Az. Time Alt. Az. Time Alt. Az.
01 Jul 6.0 02:01:45 10° WNW 07:52:34 21° SSW 07:56:40 10° SSE visible
01 Jul 8.3 16:49:27 10° WNW 17:05:39 56° N 23:55:54 50° ESE visible
02 Jul 8.3 18:31:14 10° WNW 19:21:19 65° NNE 02:19:49 10° ESE visible
03 Jul 7.6 20:15:52 10° WNW 03:49:44 54° SSE 04:01:18 10° ESE visible
04 Jul 7.1 22:07:26 10° WNW 05:30:01 46° SSW 05:40:51 10° SE visible
05 Jul 6.5 14:32:02 10° WNW 14:37:53 50° N 21:42:43 14° E visible
06 Jul 6.2 00:27:27 10° WNW 07:14:13 27° SSW 07:19:22 10° SE visible
06 Jul 8.0 16:11:19 10° WNW 16:24:23 53° N 23:17:01 42° ESE visible
07 Jul 8.5 17:51:40 10° WNW 18:26:24 62° NNE 00:51:12 73° SE visible
08 Jul 7.7 19:34:13 10° WNW 03:14:32 35° SE 03:20:50 10° ESE visible
09 Jul 7.2 21:21:50 10° WNW 04:49:11 50° S 05:00:00 10° SE visible
10 Jul 6.1 13:51:01 10° WNW 13:55:44 46° N 20:53:20 10° E visible
